User: anonymous   Login
Location: *
(51.1248°S, 108.4023°W)
Time: 16:55:05
(UTC+00:00)
Language:

Cosmos 1544 - Orbit

View from above orbital plane
View from above orbital plane
View from above satellite
View from above satellite

Ground track
Ground track

The orbit data is extracted from the following two-line orbital elements,

1 14819U 84027A   21258.77070922  .00002110  00000-0  73045-4 0  9993
2 14819  82.4794 264.3070 0012003 335.6320  24.4351 15.29236329 52399
Epoch (UTC): 15 September 2021 18:29:49
Eccentricity: 0.0012003
inclination: 82.4794°
perigee height: 470 km
apogee height: 486 km
right ascension of ascending node: 264.3070°
argument of perigee: 335.6320°
revolutions per day: 15.29236329
mean anomaly at epoch: 24.4351°
orbit number at epoch: 5239

The dashed part of the orbit path shows where the satellite is in the earth's shadow,  

DLR